Regional Weather Roundup
Issued by NWS Bismarck, ND

Home | Current Version | Previous Version | Text Only | Print | Product List | Glossary On
Versions: 1 2 3 4 5 6 7 8 9 10 11 12 13 14 15 16 17 18 19 20 21 22 23 24 25 26 27 28 29 30 31 32 33 34 35 36 37 38 39 40 41 42 43 44 45 46 47 48 49 50
000
ASUS43 KBIS 020602
RWRBIS

NWR BROADCAST TEXT
NATIONAL WEATHER SERVICE BISMARCK ND
100 AM CDT THU JUL 02 2015

NOTE: "FAIR" INDICATES FEW OR NO CLOUDS BELOW 12,000 FEET WITH NO
SIGNIFICANT WEATHER AND/OR OBSTRUCTIONS TO VISIBILITY.


CITY           SKY/WX    TMP DP  RH WIND       PRES   REMARKS
WILLISTON      MOCLDY    64  60  87 NW3       29.99F
MINOT          CLOUDY    67  63  87 CALM      29.95F FOG
MINOT AFB      CLOUDY    63  63 100 SW2       29.94F FOG
BISMARCK       CLOUDY    67  65  93 CALM      29.96S
DICKINSON      PTCLDY    62  60  93 W6        29.99S FOG
GARRISON         N/A     69  64  84 NE6       29.96S
HETTINGER ARPT LGT RAIN  65  61  87 E8        29.99F
JAMESTOWN      PTCLDY    64  61  90 S5        29.96F
HAZEN          MOCLDY    64  64 100 NW7       29.98R FOG
OAKES            N/A     63  63 100 SE6       29.97F
STANLEY        FAIR      63  63 100 CALM      30.00S FOG
$$

CITY           SKY/WX    TMP DP  RH WIND       PRES   REMARKS
GRAND FORKS    CLEAR     63  59  87 S6        29.94S
GRAND FORKS AF CLEAR     64  59  85 SW7       29.95S
DEVILS LAKE    CLOUDY    70  61  73 S8        29.94S
FARGO          CLEAR     63  56  78 S7        29.98R
CAVALIER       FAIR      63  61  94 SW3       29.94S
GRAFTON        FAIR      61  61 100 S6        29.95R FOG
GWINNER          N/A     63  63 100 SE6       29.98F
LANGDON        FAIR      57  55  94 S7        29.97S
$$

CITY           SKY/WX    TMP DP  RH WIND       PRES   REMARKS
ABERDEEN       PTCLDY    63  58  83 SE7       29.97F
MOBRIDGE       CLOUDY    70  68  93 E7        29.94S
BUFFALO          N/A     64  62  93 NE8       29.97S
RAPID CITY     TSTM      64  62  93 E10       30.03F FOG
GLASGOW        CLEAR     59  51  75 MISG      30.05S
SIDNEY         CLOUDY    64  57  77 CALM      30.03R
WOLF POINT     CLEAR     60  57  89 W6        30.02R
GLENDIVE       CLEAR     57  54  88 N5        30.05R
MILES CITY     CLEAR     64  58  80 N3        30.04R
BAKER          CLEAR     59  57  93 CALM      30.05F
$$

CITY           SKY/WX    TMP DP  RH WIND       PRES   REMARKS
BILLINGS       PTCLDY    70  55  59 N5        30.15R
GREAT FALLS    PTCLDY    67  51  56 N9        30.18R
$$



USA.gov is the U.S. government's official web portal to all federal, state and local government web resources and services.